Location: Gro�wechsungen
(51.4926°N, 10.6901°E)
Time: 06:53:52
(UTC+00:00)

Cosmos 2227 Rocket - Pass Details

Date: 18 September 2020
Orbit: 840 x 844 km, 71.0° (Epoch: 22 October)

Event Time Altitude Azimuth Distance (km) Brightness Sun altitude
Rises 23:34:20 0° 330° (NNW) 3,407 6.0 -36.9°
Reaches altitude 10° 23:37:16 10° 344° (NNW) 2,469 5.3 -36.8°
Maximum altitude 23:41:50 24° 38° (NE) 1,665 4.1 -36.7°
Enters shadow 23:43:08 23° 59° (ENE) 1,743 4.1 -36.7°
